INMARSAT 5-F4 (42698 NORAD) Tracking and Keplerian Element Data

This shows tracking and keplerian element data for the satellite.

Feedback or suggestion? Click here.




ElementValue
Catalog42698
NameINMARSAT 5-F4
Epoch Orbit580
Epoch Day350.62621467
Epoch Year2018
RAAN142.9604
Inclination0.0443
Eccentricity0.0001182
Argument of Perigee197.1179
Mean Anonmoly19.933
Mean Motion1.00959988
Decay Rate1.2E-07
L11 42698U 17025A 18350.62621467 .00000012 00000-0 00000+0 0 9997
L22 42698 0.0443 142.9604 0001182 197.1179 19.9330 1.00959988 5802

Live tracking and technical data element details for INMARSAT 5-F4 (NORAD 42698). INMARSAT 5-F4 can be tracked NOW for your location showing map with azimuth and elevation plus other details from your city location.

Track the satellite on the map from your city or location and see movement details for azimuth, elevation, latitude, longitude, range, height, and movement on the map or in text.







IsCatalogInMostPopularTable: catalog: 42698, numindb: 184
Update: records affected: 1



GetName: 42698 INMARSAT 5-F4

Hit Count: updated at: Tue, 18 Dec 2018 22:16:39 GMT